timestamp,wind_dir_avg,wind_spd_avg,wind_spd_max_dir,wind_spd_gust,battery_voltage,lat,long
2020-11-12 00:04:01+00:00,215.0,11.62,214.0,13.68,12.65,47.59359,-54.27349
2020-11-12 00:14:01+00:00,217.0,12.24,215.0,14.02,12.65,47.59359,-54.27349
2020-11-12 00:24:01+00:00,217.0,13.9,217.0,15.6,12.65,47.59359,-54.27349
2020-11-12 00:34:01+00:00,210.0,13.84,208.0,15.34,12.65,47.59359,-54.27349
2020-11-12 00:44:01+00:00,214.0,13.78,214.0,15.9,12.65,47.59359,-54.27349
2020-11-12 00:54:01+00:00,214.0,13.83,212.0,15.77,12.65,47.59359,-54.27349
2020-11-12 01:04:01+00:00,215.0,12.43,212.0,13.55,12.65,47.59359,-54.27349
2020-11-12 01:14:01+00:00,214.0,11.84,215.0,13.94,12.65,47.59359,-54.27349
2020-11-12 01:24:01+00:00,214.0,12.89,211.0,15.08,12.65,47.59359,-54.27349
2020-11-12 01:34:01+00:00,214.0,12.57,219.0,14.02,12.65,47.59359,-54.27349
2020-11-12 01:44:01+00:00,213.0,12.2,215.0,14.94,12.65,47.59359,-54.27349
2020-11-12 01:54:01+00:00,211.0,12.14,210.0,14.46,12.65,47.59359,-54.27349
2020-11-12 02:04:01+00:00,217.0,12.73,216.0,14.46,12.65,47.59359,-54.27349
2020-11-12 02:14:01+00:00,220.0,13.23,219.0,15.76,12.57,47.59359,-54.27349
2020-11-12 02:24:01+00:00,219.0,11.57,224.0,13.76,12.57,47.59359,-54.27349
2020-11-12 02:34:01+00:00,217.0,13.83,219.0,15.92,12.57,47.59359,-54.27349
2020-11-12 02:44:01+00:00,214.0,13.22,213.0,15.57,12.57,47.59359,-54.27349
2020-11-12 02:54:01+00:00,218.0,13.93,216.0,16.28,12.57,47.59359,-54.27349
2020-11-12 03:04:01+00:00,217.0,13.66,225.0,16.21,12.57,47.59359,-54.27349
2020-11-12 03:14:01+00:00,225.0,14.43,229.0,16.39,12.57,47.59359,-54.27349
2020-11-12 03:24:01+00:00,220.0,13.39,224.0,15.79,12.57,47.59359,-54.27349
2020-11-12 03:34:01+00:00,224.0,12.14,229.0,14.4,12.57,47.59359,-54.27349
2020-11-12 03:44:01+00:00,223.0,9.88,227.0,12.45,12.57,47.59359,-54.27349
2020-11-12 03:54:01+00:00,227.0,10.67,220.0,12.07,12.57,47.59359,-54.27349
2020-11-12 04:04:01+00:00,226.0,10.8,227.0,12.21,12.57,47.59359,-54.27349
2020-11-12 04:14:01+00:00,218.0,9.59,220.0,11.02,12.57,47.59359,-54.27349
2020-11-12 04:24:01+00:00,223.0,9.08,224.0,10.23,12.57,47.59359,-54.27349
2020-11-12 04:34:01+00:00,223.0,8.65,227.0,10.65,12.57,47.59359,-54.27349
2020-11-12 04:44:01+00:00,216.0,10.21,224.0,11.57,12.57,47.59359,-54.27349
2020-11-12 04:54:01+00:00,216.0,8.73,208.0,9.93,12.57,47.59359,-54.27349
2020-11-12 05:04:01+00:00,218.0,9.4,221.0,11.47,12.57,47.59359,-54.27349
2020-11-12 05:14:01+00:00,218.0,9.75,217.0,11.27,12.57,47.59359,-54.27349
2020-11-12 05:24:01+00:00,215.0,8.34,214.0,10.05,12.57,47.59359,-54.27349
2020-11-12 05:34:01+00:00,212.0,8.61,215.0,9.94,12.57,47.59359,-54.27349
2020-11-12 05:44:01+00:00,209.0,8.65,208.0,10.08,12.57,47.59359,-54.27349
2020-11-12 05:54:01+00:00,210.0,9.51,217.0,10.45,12.57,47.59359,-54.27349
2020-11-12 06:04:01+00:00,215.0,8.92,217.0,9.86,12.57,47.59359,-54.27349
2020-11-12 06:14:01+00:00,215.0,8.88,219.0,9.65,12.57,47.59359,-54.27349
2020-11-12 06:24:01+00:00,214.0,9.35,214.0,10.8,12.57,47.59359,-54.27349
2020-11-12 06:34:01+00:00,215.0,9.52,215.0,10.78,12.57,47.59359,-54.27349
2020-11-12 06:44:01+00:00,217.0,9.43,220.0,11.49,12.57,47.59359,-54.27349
2020-11-12 06:54:01+00:00,216.0,8.86,217.0,9.91,12.57,47.59359,-54.27349
2020-11-12 07:04:01+00:00,214.0,9.78,213.0,11.11,12.57,47.59359,-54.27349
2020-11-12 07:14:01+00:00,214.0,10.15,212.0,11.67,12.49,47.59359,-54.27349
2020-11-12 07:24:01+00:00,214.0,9.84,211.0,11.1,12.49,47.59359,-54.27349
2020-11-12 07:34:01+00:00,211.0,9.87,212.0,11.05,12.49,47.59359,-54.27349
2020-11-12 07:44:01+00:00,211.0,9.69,212.0,10.82,12.49,47.59359,-54.27349
2020-11-12 07:54:01+00:00,212.0,9.24,212.0,10.39,12.49,47.59359,-54.27349
2020-11-12 08:04:01+00:00,210.0,10.62,208.0,11.79,12.49,47.59359,-54.27349
2020-11-12 08:14:01+00:00,210.0,10.91,214.0,12.43,12.49,47.59359,-54.27349
2020-11-12 08:24:01+00:00,212.0,10.77,211.0,13.14,12.49,47.59359,-54.27349
2020-11-12 08:34:01+00:00,216.0,10.2,218.0,11.49,12.49,47.59359,-54.27349
2020-11-12 08:44:01+00:00,213.0,11.11,211.0,11.81,12.49,47.59359,-54.27349
2020-11-12 08:54:01+00:00,214.0,8.7,215.0,9.72,12.49,47.59359,-54.27349
2020-11-12 09:04:01+00:00,230.0,8.75,235.0,10.54,12.49,47.59359,-54.27349
2020-11-12 09:14:01+00:00,229.0,8.89,233.0,10.16,12.49,47.59359,-54.27349
2020-11-12 09:24:01+00:00,228.0,8.57,224.0,9.93,12.49,47.59359,-54.27349
2020-11-12 09:34:01+00:00,224.0,7.6,214.0,8.93,12.49,47.59359,-54.27349
2020-11-12 09:44:01+00:00,230.0,7.52,242.0,9.34,12.49,47.59359,-54.27349
2020-11-12 09:54:01+00:00,238.0,9.03,237.0,10.52,12.49,47.59359,-54.27349
2020-11-12 10:04:01+00:00,254.0,9.22,256.0,11.05,12.49,47.59359,-54.27349
2020-11-12 10:14:01+00:00,247.0,8.85,249.0,10.53,12.49,47.59359,-54.27349
2020-11-12 10:24:01+00:00,253.0,7.03,252.0,8.27,12.49,47.59359,-54.27349
2020-11-12 10:34:01+00:00,248.0,7.65,254.0,8.43,12.49,47.59359,-54.27349
2020-11-12 10:44:01+00:00,252.0,7.71,254.0,8.49,12.49,47.59359,-54.27349
2020-11-12 10:54:01+00:00,254.0,7.87,251.0,8.95,12.49,47.59359,-54.27349
2020-11-12 11:04:01+00:00,230.0,7.47,231.0,8.65,12.49,47.59359,-54.27349
2020-11-12 11:14:01+00:00,232.0,8.09,231.0,9.89,12.49,47.59359,-54.27349
2020-11-12 11:24:01+00:00,231.0,8.98,227.0,10.78,12.49,47.59359,-54.27349
2020-11-12 11:34:01+00:00,228.0,9.76,229.0,11.81,12.49,47.59359,-54.27349
2020-11-12 11:44:01+00:00,231.0,9.74,222.0,12.66,12.49,47.59359,-54.27349
2020-11-12 11:54:01+00:00,229.0,9.09,230.0,11.07,12.49,47.59359,-54.27349
2020-11-12 12:04:01+00:00,234.0,9.06,228.0,10.05,12.49,47.59359,-54.27349
2020-11-12 12:14:01+00:00,241.0,6.78,242.0,9.76,12.65,47.59359,-54.27349
2020-11-12 12:24:01+00:00,234.0,8.58,234.0,10.46,12.65,47.59359,-54.27349
2020-11-12 12:34:01+00:00,230.0,9.57,234.0,12.05,12.65,47.59359,-54.27349
2020-11-12 12:44:01+00:00,225.0,9.78,220.0,12.05,12.65,47.59359,-54.27349
2020-11-12 12:54:01+00:00,228.0,9.29,231.0,10.83,12.65,47.59359,-54.27349
2020-11-12 13:04:01+00:00,233.0,8.13,235.0,9.35,12.65,47.59359,-54.27349
2020-11-12 13:14:01+00:00,241.0,8.92,240.0,10.15,13.37,47.59359,-54.27349
2020-11-12 13:24:01+00:00,240.0,9.17,249.0,10.4,13.37,47.59359,-54.27349
2020-11-12 13:34:01+00:00,252.0,10.04,251.0,12.12,13.37,47.59359,-54.27349
2020-11-12 13:44:01+00:00,253.0,9.52,257.0,10.76,13.37,47.59359,-54.27349
2020-11-12 13:54:01+00:00,260.0,9.99,257.0,11.16,13.37,47.59359,-54.27349
2020-11-12 14:04:01+00:00,262.0,9.47,263.0,12.78,13.37,47.59359,-54.27349
2020-11-12 14:14:01+00:00,259.0,8.54,252.0,10.53,13.29,47.59359,-54.27349
2020-11-12 14:24:01+00:00,270.0,11.55,269.0,13.08,13.29,47.59359,-54.27349
2020-11-12 14:34:01+00:00,266.0,9.65,259.0,12.26,13.29,47.59359,-54.27349
2020-11-12 14:44:01+00:00,257.0,9.12,259.0,10.96,13.29,47.59359,-54.27349
2020-11-12 14:54:01+00:00,246.0,7.99,250.0,9.06,13.29,47.59359,-54.27349
2020-11-12 15:04:01+00:00,250.0,7.2,250.0,8.02,13.29,47.59359,-54.27349
2020-11-12 15:14:01+00:00,246.0,7.11,252.0,8.09,14.0,47.59359,-54.27349
2020-11-12 15:24:01+00:00,255.0,7.09,258.0,7.71,14.0,47.59359,-54.27349
2020-11-12 15:34:01+00:00,247.0,7.49,252.0,8.44,14.0,47.59359,-54.27349
2020-11-12 15:44:01+00:00,253.0,6.45,254.0,7.28,14.0,47.59359,-54.27349
2020-11-12 15:54:01+00:00,252.0,6.05,253.0,7.24,14.0,47.59359,-54.27349
2020-11-12 16:04:01+00:00,238.0,7.07,244.0,7.86,14.0,47.59359,-54.27349
2020-11-12 16:14:01+00:00,242.0,6.74,235.0,7.87,14.08,47.59359,-54.27349
2020-11-12 16:24:01+00:00,247.0,7.61,256.0,9.67,14.08,47.59359,-54.27349
2020-11-12 16:34:01+00:00,244.0,8.53,247.0,9.39,14.08,47.59359,-54.27349
2020-11-12 16:44:01+00:00,237.0,8.41,241.0,9.89,14.08,47.59359,-54.27349
2020-11-12 16:54:01+00:00,237.0,8.01,236.0,9.33,14.08,47.59359,-54.27349
2020-11-12 17:04:01+00:00,257.0,8.22,255.0,9.46,14.08,47.59359,-54.27349
2020-11-12 17:14:01+00:00,250.0,8.07,255.0,9.58,13.92,47.59359,-54.27349
2020-11-12 17:24:01+00:00,257.0,8.08,259.0,9.22,13.92,47.59359,-54.27349
2020-11-12 17:34:01+00:00,262.0,10.21,264.0,11.99,13.92,47.59359,-54.27349
2020-11-12 17:44:01+00:00,257.0,10.58,258.0,14.79,13.92,47.59359,-54.27349
2020-11-12 17:54:01+00:00,260.0,8.4,260.0,10.56,13.92,47.59359,-54.27349
2020-11-12 18:04:01+00:00,265.0,8.68,264.0,10.27,13.92,47.59359,-54.27349
2020-11-12 18:14:01+00:00,272.0,7.18,274.0,8.46,14.32,47.59359,-54.27349
2020-11-12 18:24:01+00:00,260.0,6.7,258.0,7.83,14.32,47.59359,-54.27349
2020-11-12 18:34:01+00:00,259.0,7.0,257.0,8.4,14.32,47.59359,-54.27349
2020-11-12 18:44:01+00:00,255.0,6.67,255.0,7.61,14.32,47.59359,-54.27349
2020-11-12 18:54:01+00:00,258.0,6.59,256.0,7.18,14.32,47.59359,-54.27349
2020-11-12 19:04:01+00:00,263.0,8.07,262.0,9.57,14.32,47.59359,-54.27349
2020-11-12 19:14:01+00:00,265.0,7.23,265.0,8.68,13.53,47.59359,-54.27349
2020-11-12 19:24:01+00:00,256.0,7.2,253.0,8.87,13.53,47.59359,-54.27349
2020-11-12 19:34:01+00:00,262.0,6.15,264.0,7.23,13.53,47.59359,-54.27349
2020-11-12 19:44:01+00:00,262.0,6.49,264.0,7.04,13.53,47.59359,-54.27349
2020-11-12 19:54:01+00:00,267.0,5.48,269.0,6.37,13.53,47.59359,-54.27349
2020-11-12 20:04:01+00:00,256.0,4.43,260.0,5.33,13.53,47.59359,-54.27349
2020-11-12 20:14:01+00:00,269.0,5.37,267.0,6.13,12.89,47.59359,-54.27349
2020-11-12 20:24:01+00:00,220.0,4.48,221.0,5.19,12.89,47.59359,-54.27349
2020-11-12 20:34:01+00:00,266.0,6.15,261.0,7.18,12.89,47.59359,-54.27349
2020-11-12 20:44:01+00:00,213.0,5.18,213.0,6.52,12.89,47.59359,-54.27349
2020-11-12 20:54:01+00:00,213.0,6.53,212.0,7.14,12.89,47.59359,-54.27349
2020-11-12 21:04:01+00:00,220.0,5.83,218.0,6.42,12.89,47.59359,-54.27349
2020-11-12 21:14:01+00:00,230.0,5.83,229.0,6.68,12.73,47.59359,-54.27349
2020-11-12 21:24:01+00:00,233.0,4.37,230.0,5.16,12.73,47.59359,-54.27349
2020-11-12 21:34:01+00:00,252.0,3.59,239.0,4.53,12.73,47.59359,-54.27349
2020-11-12 21:44:01+00:00,235.0,5.53,237.0,6.08,12.73,47.59359,-54.27349
2020-11-12 21:54:01+00:00,241.0,5.56,236.0,6.34,12.73,47.59359,-54.27349
2020-11-12 22:04:01+00:00,252.0,5.67,254.0,6.24,12.73,47.59359,-54.27349
2020-11-12 22:14:01+00:00,237.0,7.57,237.0,7.89,12.65,47.59359,-54.27349
2020-11-12 22:24:01+00:00,236.0,6.73,237.0,7.42,12.65,47.59359,-54.27349
2020-11-12 22:34:01+00:00,233.0,6.85,236.0,7.48,12.65,47.59359,-54.27349
2020-11-12 22:44:01+00:00,239.0,5.75,240.0,6.1,12.65,47.59359,-54.27349
2020-11-12 22:54:01+00:00,252.0,6.77,252.0,7.08,12.65,47.59359,-54.27349
2020-11-12 23:04:01+00:00,271.0,7.61,271.0,8.75,12.65,47.59359,-54.27349
2020-11-12 23:14:01+00:00,265.0,6.85,264.0,7.36,12.65,47.59359,-54.27349
2020-11-12 23:24:01+00:00,266.0,6.9,266.0,7.99,12.65,47.59359,-54.27349
2020-11-12 23:34:01+00:00,282.0,5.27,282.0,5.86,12.65,47.59359,-54.27349
2020-11-12 23:44:01+00:00,280.0,5.81,284.0,6.29,12.65,47.59359,-54.27349
2020-11-12 23:54:01+00:00,287.0,6.43,289.0,7.45,12.65,47.59359,-54.27349
